Regional Weather Roundup
Issued by NWS

Home | Current Version | Previous Version | Text Only | Print | Product List | Glossary Off
Versions: 1 2 3 4 5 6 7 8 9 10 11 12 13 14 15 16 17 18 19 20 21 22 23 24 25 26 27 28 29 30 31 32 33 34 35 36 37 38 39 40 41 42 43 44 45 46 47 48 49 50

000
ASUS44 KMEG 290100
RWRTN
TENNESSEE HOURLY STATE WEATHER ROUNDUP
NATIONAL WEATHER SERVICE MEMPHIS TN
800 PM CDT SAT MAY 28 2016

TNZ002-004-019-021-049-052-054-088>092-290200-
WEST TENNESSEE

CITY           SKY/WX    TMP DP  RH WIND       PRES   REMARKS
MEMPHIS INTL   CLOUDY    80  69  69 S5        30.03R
NWS MEMPHIS      N/A     79 N/A N/A MISG        N/A
JACKSON        MOCLDY    73  69  87 CALM      30.04S
DYERSBURG      CLOUDY    79  64  61 S8        30.02S
UNION CITY     CLEAR     75  64  69 SE8       30.02S
PARIS          PTCLDY    73  66  78 S3        30.06R
LEXINGTON      CLEAR     73  66  78 E3        30.05S
$$

TNZ008-025-027-028-033-062-065-066-290200-
NORTH MIDDLE TENNESSEE

CITY           SKY/WX    TMP DP  RH WIND       PRES   REMARKS
NASHVILLE      MOCLDY    77  60  55 SW6       30.09R
CLARKSVILLE    CLOUDY    76  66  71 S6        30.05S
COOKEVILLE     CLEAR     72  68  88 CALM      30.11R
CROSSVILLE     CLEAR     70  60  70 CALM      30.16R
$$

TNZ061-075-076-078-094-096-097-290200-
SOUTH MIDDLE TENNESSEE

CITY           SKY/WX    TMP DP  RH WIND       PRES   REMARKS
TULLAHOMA      CLEAR     72  70  94 SE3       30.13S
WINCHESTER     CLEAR     72  66  83 S3        30.13R
MCMINNVILLE    CLEAR     70  70 100 CALM      30.13R
COLUMBIA       CLEAR     77  72  83 SE3       30.07S
SHELBYVILLE    CLEAR     75  70  83 E5        30.11R
$$

TNZ017-018-042-046-047-290200-
NORTHEAST TENNESSEE

CITY           SKY/WX    TMP DP  RH WIND       PRES   REMARKS
TRI CITIES     CLOUDY    77  56  48 E3        30.14R
$$

TNZ012-013-036-069-073-074-290200-
CENTRAL EAST TENNESSEE

CITY           SKY/WX    TMP DP  RH WIND       PRES   REMARKS
KNOXVILLE      MOCLDY    78  64  61 NE3       30.09S
OAK RIDGE      CLOUDY    78  64  61 CALM      30.11S
GATLINBURG     PTCLDY    75  61  60 CALM      30.09F
$$

TNZ083-085-099-290200-
SOUTHEAST TENNESSEE

CITY           SKY/WX    TMP DP  RH WIND       PRES   REMARKS
CHATTANOOGA    PTCLDY    82  55  39 S3        30.09R
$$

SKY/WX REPORTED AS FAIR MEANS FEW OR NO CLOUDS BELOW
12 THOUSAND FEET.





USA.gov is the U.S. government's official web portal to all federal, state and local government web resources and services.